SCP
0 0 0 0 0 0 0 0 0 0 0 0 0 0 0 0 0 0 0 0 0 0 0 0 0 0 0 0 0 0 0 0 0 0 0 0 0 0 0 0 0 0 0 0 0 0 0 0 0
0 0 0 0 0 0 0 0 0 0 0 0 0 0 0 0 0 0 0 0 0 0 0 0 0 0 0 0 0 0 0 0 0 0 0 0 0 0 0 0 0 0 0 0 0 0 0 0 0
0 0 0 0 0 0 0 0 0 0 0 0 0 0 0 0 0 0 0 0 0 0 0 0 0 0 0 0 0 0 0 0 0 0 0 0 0 0 0 0 0 0 0 0 0 0 0 0 0
0 0 0 0 0 0 0 0 0 0 0 0 0 0 0 0 0 0 0 0 0 0 0 0 -0 0 0 0 0 0 0 0 0 0 0 0 0 0 0 0 0 0 0 0 0 0 0 0 0
0 0 0 -0 -0 0 -0 0 0 0 0 0 0 0 0 0 0 0 0 0 0 0 0 0 -0 0 0 0 0 0 0 0 0 0 0 0 0 0 0 0 0 0 0 0 0 0 0 0 0
-0 0 0 -0 -0 0 -0 0 0 -0 0 -0 -0 0 0 0 0 0 0 0 0 0 0 0 0 0 0 0 0 0 0 0 0 0 0 0 0 0 0 0 0 0 0 0 0 0 0 0 0
-0 -0 -0 -0 -0 0 -0 -0 -0 -0 0 -0 0 0 0 0 0 0 0 0 0 0 0 0 0 0 0 0 0 0 0 0 0 0 0 0 0 0 0 0 0 0 0 0 0 0 0 0 0
-0 -0 -0 0 -0 -0 -0 0 0 0 0 -0 0 0 0 0 0 0 0 0 0 0 0 0 0 0 0 0 0 0 0 0 0 0 0 0 0 0 0 0 0 0 0 0 0 0 0 0 0
0 -0 -0 0 -0 0 -0 -0 0 0 -0 0 0 0 0 0 0 0 0 0 0 0 0 0 0 0 0 0 0 0 0 0 0 0 0 0 0 0 0 0 0 0 0 0 0 0 0 0 0
0 0 -0 0 0 0 0 0 0 0 0 0 0 0 0 0 0 0 0 0 0 0 0 0 0 0 0 0 0 0 0 0 0 0 0 0 0 0 0 0 0 0 0 0 0 0 0 0 0
0 0 0 0 0 0 0 0 0 0 0 0 0 0 0 0 0 0 0 0 0 0 0 0 0 0 0 0 0 0 0 0 0 0 0 0 0 0 0 0 0 0 0 0 0 0 0 0 0
0 0 0 0 0 0 0 0 0 0 0 0 0 0 0 0 0 0 0 0 0 0 0 0 0 0 0 0 0 0 0 0 0 -0 0 0 0 0 0 0 0 0 0 0 0 0 0 0 0
0 0 0 0 0 0 0 0 0 0 0 0 0 0 0 0 0 0 0 0 0 0 0 0 0 0 0 0 0 0 0 0 0 0 -0 -0 0 0 0 0 0 0 0 0 0 0 0 0 0
0 0 0 0 0 0 0 0 0 0 0 0 0 0 0 0 0 0 0 0 0 0 0 0 0 0 0 0 0 0 0 0 0 0 0 -0 -0 0 0 0 0 0 0 0 0 0 0 0 0
0 0 0 0 0 0 0 0 0 0 0 0 0 0 0 0 0 0 0 0 0 0 0 0 0 0 0 0 0 0 0 0 0 0 0 0 -0 -0 -0 0 0 0 0 0 0 0 0 0 0
0 0 0 0 0 0 0 0 0 0 0 0 0 0 0 0 0 0 0 0 0 0 0 0 0 0 0 0 0 0 0 0 0 0 0 0 0 0 -0 -0 0 0 0 0 0 0 0 0 0
0 0 0 0 0 0 0 0 0 0 0 0 0 0 0 0 0 0 0 0 0 0 0 0 0 0 0 0 0 0 0 0 0 0 0 0 0 0 0 -0 -0 0 0 0 0 0 0 0 0
0 0 0 0 0 0 0 0 0 0 0 0 0 0 0 0 0 0 0 0 0 0 0 0 0 0 0 0 0 0 0 0 0 0 0 0 0 0 0 0 -0 -0 0 0 0 0 0 0 0
0 0 0 0 0 0 0 0 0 0 0 0 0 0 0 0 0 0 0 0 0 0 0 0 0 0 0 0 0 -0 -0 0 0 0 -0 0 0 0 0 0 0 0 0 -0 0 0 0 0 0
0 0 0 0 0 0 0 0 0 0 0 0 0 0 0 0 0 0 0 0 0 0 0 0 0 0 0 0 0 0 0 0 0 0 0 0 0 0 0 0 0 0 0 0 0 0 0 0 0
0 0 0 0 0 0 0 0 0 0 0 0 0 0 0 0 0 0 0 0 0 0 0 0 0 0 0 0 0 0 0 0 0 0 0 0 0 0 0 0 0 0 0 0 0 0 0 0 0
0 0 0 0 0 0 0 0 0 0 0 0 0 0 0 0 0 0 0 0 0 0 0 0 0 0 0 0 0 0 0 0 0 0 0 0 0 0 0 0 0 0 0 0 0 0 0 0 0
0 0 0 0 0 0 0 0 0 0 0 0 0 0 0 0 0 0 0 0 0 0 0 0 0 0 0 0 0 0 0 0 0 0 0 0 0 0 0 0 0 0 0 0 0 0 0 0 0
0 0 0 0 0 0 0 0 0 0 0 0 0 0 0 0 0 0 0 0 0 0 0 0 0 0 0 0 0 0 0 0 0 0 0 0 0 0 0 0 0 0 0 0 0 0 0 -0 0
0 0 0 0 0 0 0 0 0 0 0 0 0 0 0 0 0 0 0 0 0 0 0 0 0 0 0 0 0 0 0 0 0 0 0 0 0 0 0 0 0 0 0 0 0 0 0 -0 -0
0 0 0 0 0 0 0 0 0 0 0 0 0 0 0 0 0 0 0 0 0 0 0 0 0 0 0 0 0 0 0 0 0 0 0 0 0 0 0 0 0 0 0 0 0 0 0 0 0
0 0 0 0 0 0 0 0 0 0 0 0 0 0 0 0 0 0 0 0 0 0 0 0 0 0 0 0 0 0 0 0 0 0 0 0 0 0 0 0 0 0 0 0 0 0 0 0 0
0 0 0 0 0 0 0 0 0 0 0 0 0 0 0 0 0 0 0 0 0 0 0 0 0 0 0 0 0 0 0 0 0 0 0 0 0 0 0 0 0 0 0 0 0 0 0 0 0
0 0 0 0 0 0 0 0 0 0 0 0 0 0 0 0 0 0 0 0 0 0 0 0 0 0 0 0 0 0 0 0 0 0 0 0 0 0 0 0 0 0 0 0 0 0 0 0 0
0 0 0 0 0 0 0 0 0 0 0 0 0 0 0 0 0 0 0 0 0 0 0 0 0 0 0 0 0 0 0 0 0 0 0 0 0 0 0 0 0 0 0 0 0 0 0 0 0
Wind_Speed_500mb
7 5 6 6 5 8 3 8 4 10 3 8 2 8 12 8 5 5 2 12 10 2 1 9 22 26 32 32 31 35 40 42 42 42 40 39 38 36 35 34 33 35 38 38 36 38 34 39 40
7 5 9 7 7 4 7 6 7 6 7 4 2 5 10 3 6 2 6 13 10 5 5 3 20 27 30 33 32 30 33 36 39 40 39 39 39 39 37 34 34 33 33 34 41 42 40 40 48
7 9 7 7 5 9 7 8 7 7 10 7 4 12 5 3 6 7 13 15 10 2 2 1 11 25 29 32 34 36 33 32 33 36 36 37 38 38 38 34 32 29 28 29 40 45 41 42 45
9 7 8 7 8 9 10 0 3 12 2 13 4 7 6 8 5 12 13 16 11 2 1 2 7 12 27 31 36 38 39 35 33 32 33 34 34 38 36 35 35 37 31 29 32 32 41 39 44
10 6 5 4 7 7 7 3 5 4 3 8 5 1 4 5 5 11 13 12 9 4 2 5 6 6 16 29 33 38 41 40 36 34 33 31 32 45 43 41 43 42 39 35 28 30 34 30 41
6 6 4 7 8 7 4 10 6 0 6 2 7 2 4 2 3 6 14 15 9 4 9 17 24 12 20 27 35 37 41 44 42 39 36 37 35 45 50 48 49 45 42 38 35 32 33 34 37
10 7 7 4 7 4 3 10 3 5 4 4 7 1 4 6 3 6 11 16 13 8 12 19 27 36 36 33 35 41 45 48 47 45 44 46 44 45 48 50 55 53 49 43 36 35 37 34 43
9 7 2 6 6 7 6 5 2 8 4 9 4 3 2 3 6 9 12 13 15 15 15 17 21 29 38 41 39 42 48 51 51 51 50 50 50 48 48 50 53 54 54 51 47 44 42 38 53
8 7 3 6 8 4 9 10 5 10 12 12 7 5 6 7 13 17 18 16 17 20 23 24 26 28 29 29 38 47 48 52 57 58 58 57 57 57 55 55 57 57 57 55 51 50 44 43 58
8 7 13 3 1 2 5 6 13 11 15 11 16 16 12 17 20 20 20 22 21 19 22 28 34 37 39 38 37 39 38 30 46 62 64 67 63 62 61 60 60 60 59 56 54 50 50 49 67
7 9 6 2 1 2 2 6 5 2 8 14 12 16 24 17 9 7 11 16 17 16 23 29 28 30 33 36 41 45 44 39 46 29 53 65 68 68 66 67 65 62 59 55 54 51 56 59 76
5 3 3 1 2 3 5 6 8 19 18 17 25 23 16 8 9 13 15 16 17 18 27 24 21 21 24 27 29 33 41 46 47 47 47 32 48 69 69 72 71 71 67 60 60 56 65 66 74
5 1 3 4 10 13 12 16 14 32 44 29 9 6 15 23 22 20 21 22 16 16 21 18 21 25 26 29 34 37 38 40 38 43 47 54 49 26 65 75 76 76 73 66 67 66 69 71 75
5 1 8 4 4 6 7 9 1 11 9 20 14 21 39 43 35 29 26 19 15 16 16 19 24 32 35 36 36 39 44 48 49 49 53 51 52 55 32 42 83 83 83 78 73 79 76 77 78
3 3 2 9 11 5 16 9 14 13 10 13 26 44 40 29 28 31 25 11 13 16 19 23 29 35 41 47 50 51 51 54 58 57 55 56 64 59 70 65 37 92 89 85 88 87 85 79 86
7 8 4 3 15 4 8 17 5 14 5 42 38 26 20 12 18 11 8 11 19 23 28 31 37 42 49 55 62 67 70 70 72 73 72 69 68 73 65 78 77 42 96 94 97 100 93 87 93
12 3 3 15 8 7 7 16 9 15 47 50 28 22 3 3 7 9 10 15 17 19 27 37 45 55 66 73 79 84 88 91 91 90 90 88 87 85 85 75 81 71 60 97 107 107 99 97 95
4 2 4 9 8 9 11 31 27 40 39 42 31 12 1 10 10 4 6 11 20 26 38 52 63 73 83 90 95 101 103 103 102 103 102 101 98 92 85 88 82 72 82 73 95 112 100 100 101
12 6 4 8 6 11 10 20 40 31 28 19 10 6 9 14 8 5 12 23 34 44 57 72 85 88 91 94 97 101 103 105 107 107 106 103 98 94 89 92 97 85 78 94 74 91 112 106 101
8 4 7 10 3 3 13 40 27 12 10 7 14 17 18 9 6 15 27 38 52 66 76 82 89 94 95 94 93 90 91 94 94 93 92 89 87 90 98 99 98 94 85 90 102 65 80 107 112
5 6 4 2 14 6 15 15 10 3 2 5 17 18 12 4 21 31 44 55 68 75 80 85 91 90 83 77 79 80 79 82 86 85 85 81 77 76 79 85 92 96 91 91 98 115 72 94 116
2 7 6 6 7 6 8 9 11 7 10 9 17 21 13 10 26 39 53 64 71 77 79 84 83 78 71 67 70 75 81 87 83 82 84 85 81 76 73 75 77 82 87 88 95 106 118 56 119
5 4 5 3 3 6 4 6 15 5 13 17 20 28 15 15 31 47 57 66 74 77 82 86 78 72 69 68 68 71 77 81 84 85 84 82 83 80 77 73 70 73 72 75 77 91 114 126 57
8 7 10 7 4 6 5 6 12 9 12 6 10 30 14 28 41 50 60 69 77 79 82 79 74 72 69 67 67 68 71 75 80 81 84 84 83 83 78 76 79 89 90 92 85 87 92 120 121
5 9 6 10 8 9 7 2 22 12 12 7 13 21 13 32 44 54 63 72 78 82 80 73 72 74 69 66 62 60 65 69 77 81 82 84 82 81 80 70 72 77 85 95 86 82 89 88 111
3 9 10 11 4 9 6 12 12 10 3 15 16 18 20 39 48 54 62 70 75 76 73 72 71 71 67 64 61 58 59 63 70 77 78 80 83 82 75 69 65 68 66 71 75 80 89 88 81
5 2 4 14 4 6 5 14 21 12 15 12 20 13 30 45 48 52 59 67 73 73 71 70 69 67 66 60 58 58 58 61 67 70 71 74 75 78 76 71 72 72 69 70 71 88 88 75 77
4 10 7 6 2 9 9 12 11 9 6 11 16 17 33 49 46 50 57 64 69 68 68 67 62 64 61 57 55 59 60 61 65 66 71 71 71 65 66 63 59 55 56 72 68 69 70 69 66
4 2 8 7 5 9 4 13 15 15 10 14 16 24 34 45 45 49 54 58 63 65 66 65 62 62 60 58 58 58 59 59 61 63 65 64 65 59 53 56 60 59 60 57 65 68 75 73 60
5 9 9 8 9 2 5 16 7 14 14 16 23 32 45 43 39 45 51 56 63 64 65 63 62 61 59 58 55 57 57 56 58 57 56 55 62 58 54 50 51 55 59 63 65 66 68 79 59
Wind_Direction_500mb
256 260 193 156 69 70 275 267 251 321 330 325 48 81 112 58 64 184 293 346 320 296 91 240 205 210 203 208 211 213 215 217 219 220 221 224 223 224 222 219 216 214 215 210 201 187 194 182 179
233 177 141 121 103 104 262 263 229 233 287 325 33 46 63 80 71 60 353 335 336 164 81 199 209 210 212 210 216 217 218 219 221 224 227 228 227 219 221 218 216 210 207 192 181 186 191 186 180
184 168 135 113 125 174 205 223 240 303 337 25 90 57 83 108 61 15 353 358 6 121 95 123 219 220 218 221 221 225 225 228 225 227 228 230 226 218 214 213 207 204 201 200 193 190 197 194 186
157 127 67 104 207 244 206 213 296 312 176 34 51 54 97 73 58 352 355 5 18 18 253 340 359 269 233 233 230 232 233 235 237 235 232 231 221 206 210 206 203 196 198 205 196 193 199 196 193
147 115 91 149 244 254 241 261 300 291 348 17 56 263 67 81 53 355 354 3 14 52 218 239 288 338 277 253 249 244 239 239 243 244 235 227 222 206 206 206 201 203 204 198 207 211 206 202 198
100 93 71 223 232 245 274 354 303 205 66 39 53 28 186 219 299 346 351 5 11 300 245 245 241 234 247 258 267 258 250 248 245 244 235 231 216 211 212 212 207 206 201 200 212 232 226 217 207
120 96 213 223 245 278 240 350 28 334 338 58 1 283 162 180 344 340 333 338 348 314 277 262 261 250 251 250 251 254 264 260 248 242 234 231 226 213 216 218 209 207 214 219 229 237 233 230 200
122 97 196 244 209 249 19 9 10 28 334 340 4 265 319 210 295 314 319 310 315 309 297 288 284 273 258 262 257 250 251 259 259 244 235 232 229 227 221 221 222 219 222 231 234 237 244 229 187
118 68 235 255 164 273 359 20 360 333 299 307 287 269 210 260 295 305 307 299 289 287 291 288 288 290 288 287 268 259 254 255 259 250 238 235 233 226 225 223 225 229 233 234 238 238 238 223 198
100 126 217 236 162 104 344 4 329 342 339 302 281 257 245 291 298 303 317 315 301 297 296 291 290 288 287 286 284 285 286 274 268 245 245 233 234 232 230 228 230 233 234 237 238 236 228 219 205
154 183 208 244 98 49 323 273 230 218 276 231 267 275 281 288 271 282 297 315 318 320 325 323 312 304 300 294 291 288 291 294 300 297 268 244 234 234 231 232 233 231 229 231 233 232 227 221 207
151 194 163 119 193 245 245 266 254 214 241 291 287 276 284 282 279 291 290 300 305 315 325 329 333 332 328 327 322 316 307 299 292 292 278 294 243 241 235 234 234 232 227 225 225 232 228 222 211
151 235 255 252 265 267 269 246 242 258 270 271 236 243 293 287 281 290 288 279 291 309 328 342 338 332 330 329 330 329 325 325 320 314 311 293 290 267 245 239 240 236 231 230 226 231 233 224 216
157 282 298 273 335 279 293 285 20 278 179 198 257 267 307 287 270 276 288 272 270 304 323 322 314 313 313 311 306 305 306 307 309 312 316 316 302 285 262 263 245 242 237 236 234 230 231 229 224
86 161 22 28 344 330 331 270 230 236 204 266 288 295 296 293 264 271 276 249 241 274 283 291 296 298 295 294 295 293 292 293 295 295 296 301 305 308 280 274 279 245 241 244 237 232 229 231 228
57 56 9 8 9 4 33 276 294 179 346 311 307 316 315 298 282 256 204 224 250 262 270 279 285 287 289 289 290 291 290 289 288 288 289 288 289 291 287 282 273 273 242 237 244 231 227 228 229
18 230 320 324 60 338 69 278 278 224 312 308 314 336 352 355 160 181 222 251 263 282 292 292 291 293 292 290 288 287 286 284 284 282 282 283 283 283 277 278 276 268 273 234 232 233 226 225 227
199 354 299 253 323 7 286 271 280 288 299 299 311 332 117 152 137 175 253 276 286 293 296 296 295 294 294 294 292 290 289 286 283 280 278 277 277 275 266 269 270 273 260 264 228 231 224 229 227
108 103 282 270 326 357 267 275 284 288 278 269 256 246 179 177 182 242 281 294 299 303 303 302 301 300 300 299 298 295 292 289 287 285 284 280 274 269 264 260 263 262 259 258 259 229 226 219 229
90 99 273 278 337 339 303 291 278 264 242 215 195 170 171 176 286 310 312 313 314 315 315 314 311 309 306 302 300 299 296 293 290 288 287 285 281 273 266 261 260 263 255 254 249 249 222 213 217
132 167 197 232 333 235 296 292 341 33 113 175 188 171 164 349 332 324 323 323 323 323 316 314 313 311 308 307 304 300 295 291 292 292 291 289 284 279 272 265 259 260 261 252 252 246 251 205 214
189 146 80 334 3 281 16 277 302 294 284 227 200 195 196 329 331 328 328 327 326 324 321 318 314 311 310 310 306 303 301 299 298 295 292 290 287 281 272 265 261 256 256 254 246 247 241 245 217
154 78 73 74 115 16 343 61 273 343 267 240 223 215 218 318 330 329 330 329 330 328 326 322 319 314 314 312 308 303 299 298 298 296 293 289 286 281 273 262 253 249 250 249 244 244 240 242 239
142 91 53 48 46 13 264 108 275 208 217 228 205 211 233 331 333 331 332 332 330 328 325 323 321 318 317 314 308 303 299 299 297 297 296 293 289 284 278 269 256 249 245 237 240 240 245 242 242
90 73 342 350 7 222 360 308 248 258 244 227 206 193 280 330 334 333 332 332 330 329 328 327 325 323 322 316 312 306 302 301 299 298 297 296 292 285 279 273 264 255 250 246 244 242 244 247 242
157 154 154 218 247 280 332 235 250 219 299 247 196 195 308 334 336 331 332 332 333 330 332 330 329 325 323 321 317 312 306 301 297 295 295 292 290 287 284 269 254 247 245 239 238 238 240 240 244
200 126 132 101 55 40 255 286 288 246 253 186 211 250 325 336 329 328 333 336 334 335 336 333 331 328 326 324 323 317 311 306 299 294 290 288 288 284 277 264 256 255 251 247 245 242 242 237 240
139 142 78 4 92 297 283 279 244 292 274 233 243 249 330 331 324 330 336 337 337 340 338 336 335 332 331 330 325 320 316 310 302 297 291 287 289 283 274 263 258 254 247 233 229 230 227 232 236
130 359 46 112 120 174 277 262 218 225 233 238 232 240 334 329 323 330 335 338 340 344 340 340 339 337 338 335 332 326 320 315 309 303 295 283 281 279 270 256 254 253 244 241 237 239 232 223 239
169 181 159 124 227 159 140 270 195 226 248 232 231 255 316 320 320 328 335 339 346 346 346 344 345 341 342 339 334 330 327 324 319 315 306 291 278 270 265 255 253 247 242 237 236 236 227 218 233
Wind_Speed_850mb
7 5 6 6 5 8 3 8 4 10 3 8 2 8 12 8 5 5 2 12 10 2 1 9 22 26 32 32 31 35 40 42 42 42 40 39 38 36 35 34 33 35 38 38 36 38 34 39 40
7 5 9 7 7 4 7 6 7 6 7 4 2 5 10 3 6 2 6 13 10 5 5 3 20 27 30 33 32 30 33 36 39 40 39 39 39 39 37 34 34 33 33 34 41 42 40 40 48
7 9 7 7 5 9 7 8 7 7 10 7 4 12 5 3 6 7 13 15 10 2 2 1 11 25 29 32 34 36 33 32 33 36 36 37 38 38 38 34 32 29 28 29 40 45 41 42 45
9 7 8 7 8 9 10 0 3 12 2 13 4 7 6 8 5 12 13 16 11 2 1 2 7 12 27 31 36 38 39 35 33 32 33 34 34 38 36 35 35 37 31 29 32 32 41 39 44
10 6 5 4 7 7 7 3 5 4 3 8 5 1 4 5 5 11 13 12 9 4 2 5 6 6 16 29 33 38 41 40 36 34 33 31 32 45 43 41 43 42 39 35 28 30 34 30 41
6 6 4 7 8 7 4 10 6 0 6 2 7 2 4 2 3 6 14 15 9 4 9 17 24 12 20 27 35 37 41 44 42 39 36 37 35 45 50 48 49 45 42 38 35 32 33 34 37
10 7 7 4 7 4 3 10 3 5 4 4 7 1 4 6 3 6 11 16 13 8 12 19 27 36 36 33 35 41 45 48 47 45 44 46 44 45 48 50 55 53 49 43 36 35 37 34 43
9 7 2 6 6 7 6 5 2 8 4 9 4 3 2 3 6 9 12 13 15 15 15 17 21 29 38 41 39 42 48 51 51 51 50 50 50 48 48 50 53 54 54 51 47 44 42 38 53
8 7 3 6 8 4 9 10 5 10 12 12 7 5 6 7 13 17 18 16 17 20 23 24 26 28 29 29 38 47 48 52 57 58 58 57 57 57 55 55 57 57 57 55 51 50 44 43 58
8 7 13 3 1 2 5 6 13 11 15 11 16 16 12 17 20 20 20 22 21 19 22 28 34 37 39 38 37 39 38 30 46 62 64 67 63 62 61 60 60 60 59 56 54 50 50 49 67
7 9 6 2 1 2 2 6 5 2 8 14 12 16 24 17 9 7 11 16 17 16 23 29 28 30 33 36 41 45 44 39 46 29 53 65 68 68 66 67 65 62 59 55 54 51 56 59 76
5 3 3 1 2 3 5 6 8 19 18 17 25 23 16 8 9 13 15 16 17 18 27 24 21 21 24 27 29 33 41 46 47 47 47 32 48 69 69 72 71 71 67 60 60 56 65 66 74
5 1 3 4 10 13 12 16 14 32 44 29 9 6 15 23 22 20 21 22 16 16 21 18 21 25 26 29 34 37 38 40 38 43 47 54 49 26 65 75 76 76 73 66 67 66 69 71 75
5 1 8 4 4 6 7 9 1 11 9 20 14 21 39 43 35 29 26 19 15 16 16 19 24 32 35 36 36 39 44 48 49 49 53 51 52 55 32 42 83 83 83 78 73 79 76 77 78
3 3 2 9 11 5 16 9 14 13 10 13 26 44 40 29 28 31 25 11 13 16 19 23 29 35 41 47 50 51 51 54 58 57 55 56 64 59 70 65 37 92 89 85 88 87 85 79 86
7 8 4 3 15 4 8 17 5 14 5 42 38 26 20 12 18 11 8 11 19 23 28 31 37 42 49 55 62 67 70 70 72 73 72 69 68 73 65 78 77 42 96 94 97 100 93 87 93
12 3 3 15 8 7 7 16 9 15 47 50 28 22 3 3 7 9 10 15 17 19 27 37 45 55 66 73 79 84 88 91 91 90 90 88 87 85 85 75 81 71 60 97 107 107 99 97 95
4 2 4 9 8 9 11 31 27 40 39 42 31 12 1 10 10 4 6 11 20 26 38 52 63 73 83 90 95 101 103 103 102 103 102 101 98 92 85 88 82 72 82 73 95 112 100 100 101
12 6 4 8 6 11 10 20 40 31 28 19 10 6 9 14 8 5 12 23 34 44 57 72 85 88 91 94 97 101 103 105 107 107 106 103 98 94 89 92 97 85 78 94 74 91 112 106 101
8 4 7 10 3 3 13 40 27 12 10 7 14 17 18 9 6 15 27 38 52 66 76 82 89 94 95 94 93 90 91 94 94 93 92 89 87 90 98 99 98 94 85 90 102 65 80 107 112
5 6 4 2 14 6 15 15 10 3 2 5 17 18 12 4 21 31 44 55 68 75 80 85 91 90 83 77 79 80 79 82 86 85 85 81 77 76 79 85 92 96 91 91 98 115 72 94 116
2 7 6 6 7 6 8 9 11 7 10 9 17 21 13 10 26 39 53 64 71 77 79 84 83 78 71 67 70 75 81 87 83 82 84 85 81 76 73 75 77 82 87 88 95 106 118 56 119
5 4 5 3 3 6 4 6 15 5 13 17 20 28 15 15 31 47 57 66 74 77 82 86 78 72 69 68 68 71 77 81 84 85 84 82 83 80 77 73 70 73 72 75 77 91 114 126 57
8 7 10 7 4 6 5 6 12 9 12 6 10 30 14 28 41 50 60 69 77 79 82 79 74 72 69 67 67 68 71 75 80 81 84 84 83 83 78 76 79 89 90 92 85 87 92 120 121
5 9 6 10 8 9 7 2 22 12 12 7 13 21 13 32 44 54 63 72 78 82 80 73 72 74 69 66 62 60 65 69 77 81 82 84 82 81 80 70 72 77 85 95 86 82 89 88 111
3 9 10 11 4 9 6 12 12 10 3 15 16 18 20 39 48 54 62 70 75 76 73 72 71 71 67 64 61 58 59 63 70 77 78 80 83 82 75 69 65 68 66 71 75 80 89 88 81
5 2 4 14 4 6 5 14 21 12 15 12 20 13 30 45 48 52 59 67 73 73 71 70 69 67 66 60 58 58 58 61 67 70 71 74 75 78 76 71 72 72 69 70 71 88 88 75 77
4 10 7 6 2 9 9 12 11 9 6 11 16 17 33 49 46 50 57 64 69 68 68 67 62 64 61 57 55 59 60 61 65 66 71 71 71 65 66 63 59 55 56 72 68 69 70 69 66
4 2 8 7 5 9 4 13 15 15 10 14 16 24 34 45 45 49 54 58 63 65 66 65 62 62 60 58 58 58 59 59 61 63 65 64 65 59 53 56 60 59 60 57 65 68 75 73 60
5 9 9 8 9 2 5 16 7 14 14 16 23 32 45 43 39 45 51 56 63 64 65 63 62 61 59 58 55 57 57 56 58 57 56 55 62 58 54 50 51 55 59 63 65 66 68 79 59
Wind_Direction_850mb
256 260 193 156 69 70 275 267 251 321 330 325 48 81 112 58 64 184 293 346 320 296 91 240 205 210 203 208 211 213 215 217 219 220 221 224 223 224 222 219 216 214 215 210 201 187 194 182 179
233 177 141 121 103 104 262 263 229 233 287 325 33 46 63 80 71 60 353 335 336 164 81 199 209 210 212 210 216 217 218 219 221 224 227 228 227 219 221 218 216 210 207 192 181 186 191 186 180
184 168 135 113 125 174 205 223 240 303 337 25 90 57 83 108 61 15 353 358 6 121 95 123 219 220 218 221 221 225 225 228 225 227 228 230 226 218 214 213 207 204 201 200 193 190 197 194 186
157 127 67 104 207 244 206 213 296 312 176 34 51 54 97 73 58 352 355 5 18 18 253 340 359 269 233 233 230 232 233 235 237 235 232 231 221 206 210 206 203 196 198 205 196 193 199 196 193
147 115 91 149 244 254 241 261 300 291 348 17 56 263 67 81 53 355 354 3 14 52 218 239 288 338 277 253 249 244 239 239 243 244 235 227 222 206 206 206 201 203 204 198 207 211 206 202 198
100 93 71 223 232 245 274 354 303 205 66 39 53 28 186 219 299 346 351 5 11 300 245 245 241 234 247 258 267 258 250 248 245 244 235 231 216 211 212 212 207 206 201 200 212 232 226 217 207
120 96 213 223 245 278 240 350 28 334 338 58 1 283 162 180 344 340 333 338 348 314 277 262 261 250 251 250 251 254 264 260 248 242 234 231 226 213 216 218 209 207 214 219 229 237 233 230 200
122 97 196 244 209 249 19 9 10 28 334 340 4 265 319 210 295 314 319 310 315 309 297 288 284 273 258 262 257 250 251 259 259 244 235 232 229 227 221 221 222 219 222 231 234 237 244 229 187
118 68 235 255 164 273 359 20 360 333 299 307 287 269 210 260 295 305 307 299 289 287 291 288 288 290 288 287 268 259 254 255 259 250 238 235 233 226 225 223 225 229 233 234 238 238 238 223 198
100 126 217 236 162 104 344 4 329 342 339 302 281 257 245 291 298 303 317 315 301 297 296 291 290 288 287 286 284 285 286 274 268 245 245 233 234 232 230 228 230 233 234 237 238 236 228 219 205
154 183 208 244 98 49 323 273 230 218 276 231 267 275 281 288 271 282 297 315 318 320 325 323 312 304 300 294 291 288 291 294 300 297 268 244 234 234 231 232 233 231 229 231 233 232 227 221 207
151 194 163 119 193 245 245 266 254 214 241 291 287 276 284 282 279 291 290 300 305 315 325 329 333 332 328 327 322 316 307 299 292 292 278 294 243 241 235 234 234 232 227 225 225 232 228 222 211
151 235 255 252 265 267 269 246 242 258 270 271 236 243 293 287 281 290 288 279 291 309 328 342 338 332 330 329 330 329 325 325 320 314 311 293 290 267 245 239 240 236 231 230 226 231 233 224 216
157 282 298 273 335 279 293 285 20 278 179 198 257 267 307 287 270 276 288 272 270 304 323 322 314 313 313 311 306 305 306 307 309 312 316 316 302 285 262 263 245 242 237 236 234 230 231 229 224
86 161 22 28 344 330 331 270 230 236 204 266 288 295 296 293 264 271 276 249 241 274 283 291 296 298 295 294 295 293 292 293 295 295 296 301 305 308 280 274 279 245 241 244 237 232 229 231 228
57 56 9 8 9 4 33 276 294 179 346 311 307 316 315 298 282 256 204 224 250 262 270 279 285 287 289 289 290 291 290 289 288 288 289 288 289 291 287 282 273 273 242 237 244 231 227 228 229
18 230 320 324 60 338 69 278 278 224 312 308 314 336 352 355 160 181 222 251 263 282 292 292 291 293 292 290 288 287 286 284 284 282 282 283 283 283 277 278 276 268 273 234 232 233 226 225 227
199 354 299 253 323 7 286 271 280 288 299 299 311 332 117 152 137 175 253 276 286 293 296 296 295 294 294 294 292 290 289 286 283 280 278 277 277 275 266 269 270 273 260 264 228 231 224 229 227
108 103 282 270 326 357 267 275 284 288 278 269 256 246 179 177 182 242 281 294 299 303 303 302 301 300 300 299 298 295 292 289 287 285 284 280 274 269 264 260 263 262 259 258 259 229 226 219 229
90 99 273 278 337 339 303 291 278 264 242 215 195 170 171 176 286 310 312 313 314 315 315 314 311 309 306 302 300 299 296 293 290 288 287 285 281 273 266 261 260 263 255 254 249 249 222 213 217
132 167 197 232 333 235 296 292 341 33 113 175 188 171 164 349 332 324 323 323 323 323 316 314 313 311 308 307 304 300 295 291 292 292 291 289 284 279 272 265 259 260 261 252 252 246 251 205 214
189 146 80 334 3 281 16 277 302 294 284 227 200 195 196 329 331 328 328 327 326 324 321 318 314 311 310 310 306 303 301 299 298 295 292 290 287 281 272 265 261 256 256 254 246 247 241 245 217
154 78 73 74 115 16 343 61 273 343 267 240 223 215 218 318 330 329 330 329 330 328 326 322 319 314 314 312 308 303 299 298 298 296 293 289 286 281 273 262 253 249 250 249 244 244 240 242 239
142 91 53 48 46 13 264 108 275 208 217 228 205 211 233 331 333 331 332 332 330 328 325 323 321 318 317 314 308 303 299 299 297 297 296 293 289 284 278 269 256 249 245 237 240 240 245 242 242
90 73 342 350 7 222 360 308 248 258 244 227 206 193 280 330 334 333 332 332 330 329 328 327 325 323 322 316 312 306 302 301 299 298 297 296 292 285 279 273 264 255 250 246 244 242 244 247 242
157 154 154 218 247 280 332 235 250 219 299 247 196 195 308 334 336 331 332 332 333 330 332 330 329 325 323 321 317 312 306 301 297 295 295 292 290 287 284 269 254 247 245 239 238 238 240 240 244
200 126 132 101 55 40 255 286 288 246 253 186 211 250 325 336 329 328 333 336 334 335 336 333 331 328 326 324 323 317 311 306 299 294 290 288 288 284 277 264 256 255 251 247 245 242 242 237 240
139 142 78 4 92 297 283 279 244 292 274 233 243 249 330 331 324 330 336 337 337 340 338 336 335 332 331 330 325 320 316 310 302 297 291 287 289 283 274 263 258 254 247 233 229 230 227 232 236
130 359 46 112 120 174 277 262 218 225 233 238 232 240 334 329 323 330 335 338 340 344 340 340 339 337 338 335 332 326 320 315 309 303 295 283 281 279 270 256 254 253 244 241 237 239 232 223 239
169 181 159 124 227 159 140 270 195 226 248 232 231 255 316 320 320 328 335 339 346 346 346 344 345 341 342 339 334 330 327 324 319 315 306 291 278 270 265 255 253 247 242 237 236 236 227 218 233